Back to catalog

STARLINK-2355

AliveCommunicationsVLEO
NORAD 47895·PAYLOAD·🇺🇸 United States

Launched Mar 14, 2021 from Cape Canaveral Space Force Station

Loading…

Next Passes (next 24 hours)

TLE

FreshSource: CelesTrak SupGP

Epoch: Sep 14, 2026, 13:50 UTC

1 47895C 21021AM  26257.57687500  .00025376  00000+0  81623-3 0  2571
2 47895  53.1571 109.1196 0001394  95.3820  14.9861 15.31681658    12

Track STARLINK-2355 in real time with AllMySat

Download on the App Store